owner,sensor,date,latitude,longitude,vertical_datum,sea_water_practical_salinity,qcFlag 
ENP,ioos.station.NOAA.NDBC:DKKF1:1,2017-07-01T00:00:00Z,25.1800,-80.4900,1.5,36.0,11111222 
ENP,ioos.station.NOAA.NDBC:DKKF1:1,2017-07-01T03:00:00Z,25.1800,-80.4900,1.5,36.0,11111222 
ENP,ioos.station.NOAA.NDBC:DKKF1:1,2017-07-01T06:00:00Z,25.1800,-80.4900,1.5,35.97,1111122 
ENP,ioos.station.NOAA.NDBC:DKKF1:1,2017-07-01T07:00:00Z,25.1800,-80.4900,1.5,36.0,11111222 
ENP,ioos.station.NOAA.NDBC:DKKF1:1,2017-07-01T08:00:00Z,25.1800,-80.4900,1.5,36.0,11111222 
ENP,ioos.station.NOAA.NDBC:DKKF1:1,2017-07-01T10:00:00Z,25.1800,-80.4900,1.5,36.01,1111122 
ENP,ioos.station.NOAA.NDBC:DKKF1:1,2017-07-01T11:00:00Z,25.1800,-80.4900,1.5,36.0,11111222 
ENP,ioos.station.NOAA.NDBC:DKKF1:1,2017-07-01T12:00:00Z,25.1800,-80.4900,1.5,36.1,11111222 
ENP,ioos.station.NOAA.NDBC:DKKF1:1,2017-07-01T13:00:00Z,25.1800,-80.4900,1.5,36.1,11111222 
ENP,ioos.station.NOAA.NDBC:DKKF1:1,2017-07-01T14:00:00Z,25.1800,-80.4900,1.5,36.1,11111222 
ENP,ioos.station.NOAA.NDBC:DKKF1:1,2017-07-01T15:00:00Z,25.1800,-80.4900,1.5,36.1,11111222 
ENP,ioos.station.NOAA.NDBC:DKKF1:1,2017-07-01T16:00:00Z,25.1800,-80.4900,1.5,36.1,11111222 
ENP,ioos.station.NOAA.NDBC:DKKF1:1,2017-07-01T17:00:00Z,25.1800,-80.4900,1.5,36.1,11111222 
ENP,ioos.station.NOAA.NDBC:DKKF1:1,2017-07-01T18:00:00Z,25.1800,-80.4900,1.5,36.11,1111122 
ENP,ioos.station.NOAA.NDBC:DKKF1:1,2017-07-01T19:00:00Z,25.1800,-80.4900,1.5,36.1,11111222 
ENP,ioos.station.NOAA.NDBC:DKKF1:1,2017-07-01T20:00:00Z,25.1800,-80.4900,1.5,36.12,1111122 
ENP,ioos.station.NOAA.NDBC:DKKF1:1,2017-07-01T21:00:00Z,25.1800,-80.4900,1.5,36.14,1111122 
ENP,ioos.station.NOAA.NDBC:DKKF1:1,2017-07-01T22:00:00Z,25.1800,-80.4900,1.5,36.2,11111222 
ENP,ioos.station.NOAA.NDBC:DKKF1:1,2017-07-01T23:00:00Z,25.1800,-80.4900,1.5,36.2,11111222 
ENP,ioos.station.NOAA.NDBC:DKKF1:1,2017-07-02T00:00:00Z,25.1800,-80.4900,1.5,36.2,11111222 
ENP,ioos.station.NOAA.NDBC:DKKF1:1,2017-07-02T03:00:00Z,25.1800,-80.4900,1.5,36.1,11111222 
ENP,ioos.station.NOAA.NDBC:DKKF1:1,2017-07-02T06:00:00Z,25.1800,-80.4900,1.5,36.26,1111122 
ENP,ioos.station.NOAA.NDBC:DKKF1:1,2017-07-02T07:00:00Z,25.1800,-80.4900,1.5,36.3,11111222 
ENP,ioos.station.NOAA.NDBC:DKKF1:1,2017-07-02T08:00:00Z,25.1800,-80.4900,1.5,36.3,11111222 
ENP,ioos.station.NOAA.NDBC:DKKF1:1,2017-07-02T10:00:00Z,25.1800,-80.4900,1.5,36.26,1111122 
ENP,ioos.station.NOAA.NDBC:DKKF1:1,2017-07-02T11:00:00Z,25.1800,-80.4900,1.5,36.3,11111222 
ENP,ioos.station.NOAA.NDBC:DKKF1:1,2017-07-02T12:00:00Z,25.1800,-80.4900,1.5,36.28,1111122 
ENP,ioos.station.NOAA.NDBC:DKKF1:1,2017-07-02T13:00:00Z,25.1800,-80.4900,1.5,36.27,1111122 
ENP,ioos.station.NOAA.NDBC:DKKF1:1,2017-07-02T14:00:00Z,25.1800,-80.4900,1.5,36.3,11111222 
ENP,ioos.station.NOAA.NDBC:DKKF1:1,2017-07-02T15:00:00Z,25.1800,-80.4900,1.5,36.25,1111122 
ENP,ioos.station.NOAA.NDBC:DKKF1:1,2017-07-02T16:00:00Z,25.1800,-80.4900,1.5,36.2,11111222 
ENP,ioos.station.NOAA.NDBC:DKKF1:1,2017-07-02T17:00:00Z,25.1800,-80.4900,1.5,36.2,11111222 
ENP,ioos.station.NOAA.NDBC:DKKF1:1,2017-07-02T18:00:00Z,25.1800,-80.4900,1.5,36.3,11111222 
ENP,ioos.station.NOAA.NDBC:DKKF1:1,2017-07-02T19:00:00Z,25.1800,-80.4900,1.5,36.28,1111122 
ENP,ioos.station.NOAA.NDBC:DKKF1:1,2017-07-02T20:00:00Z,25.1800,-80.4900,1.5,36.31,1111122 
ENP,ioos.station.NOAA.NDBC:DKKF1:1,2017-07-02T21:00:00Z,25.1800,-80.4900,1.5,36.33,1111122 
ENP,ioos.station.NOAA.NDBC:DKKF1:1,2017-07-02T22:00:00Z,25.1800,-80.4900,1.5,36.34,1111122 
ENP,ioos.station.NOAA.NDBC:DKKF1:1,2017-07-02T23:00:00Z,25.1800,-80.4900,1.5,36.34,1111122 
ENP,ioos.station.NOAA.NDBC:DKKF1:1,2017-07-03T00:00:00Z,25.1800,-80.4900,1.5,36.4,11111222 
ENP,ioos.station.NOAA.NDBC:DKKF1:1,2017-07-03T03:00:00Z,25.1800,-80.4900,1.5,36.43,1111122 
ENP,ioos.station.NOAA.NDBC:DKKF1:1,2017-07-03T06:00:00Z,25.1800,-80.4900,1.5,36.28,1111122 
ENP,ioos.station.NOAA.NDBC:DKKF1:1,2017-07-03T07:00:00Z,25.1800,-80.4900,1.5,36.42,1111122 
ENP,ioos.station.NOAA.NDBC:DKKF1:1,2017-07-03T08:00:00Z,25.1800,-80.4900,1.5,36.45,1111122 
ENP,ioos.station.NOAA.NDBC:DKKF1:1,2017-07-03T10:00:00Z,25.1800,-80.4900,1.5,36.4,1111122 
ENP,ioos.station.NOAA.NDBC:DKKF1:1,2017-07-03T11:00:00Z,25.1800,-80.4900,1.5,36.4,1111122 
ENP,ioos.station.NOAA.NDBC:DKKF1:1,2017-07-03T12:00:00Z,25.1800,-80.4900,1.5,36.37,1111122 
ENP,ioos.station.NOAA.NDBC:DKKF1:1,2017-07-03T13:00:00Z,25.1800,-80.4900,1.5,36.36,1111122 
ENP,ioos.station.NOAA.NDBC:DKKF1:1,2017-07-03T14:00:00Z,25.1800,-80.4900,1.5,36.37,1111122 
ENP,ioos.station.NOAA.NDBC:DKKF1:1,2017-07-03T15:00:00Z,25.1800,-80.4900,1.5,36.37,1111122 
ENP,ioos.station.NOAA.NDBC:DKKF1:1,2017-07-03T16:00:00Z,25.1800,-80.4900,1.5,36.39,1111122 
ENP,ioos.station.NOAA.NDBC:DKKF1:1,2017-07-03T17:00:00Z,25.1800,-80.4900,1.5,36.41,1111122 
ENP,ioos.station.NOAA.NDBC:DKKF1:1,2017-07-03T18:00:00Z,25.1800,-80.4900,1.5,36.4,1111122 
ENP,ioos.station.NOAA.NDBC:DKKF1:1,2017-07-03T19:00:00Z,25.1800,-80.4900,1.5,36.4,11111222 
ENP,ioos.station.NOAA.NDBC:DKKF1:1,2017-07-03T20:00:00Z,25.1800,-80.4900,1.5,36.43,1111122 
ENP,ioos.station.NOAA.NDBC:DKKF1:1,2017-07-03T21:00:00Z,25.1800,-80.4900,1.5,36.43,1111122 
ENP,ioos.station.NOAA.NDBC:DKKF1:1,2017-07-03T22:00:00Z,25.1800,-80.4900,1.5,36.46,1111122 
ENP,ioos.station.NOAA.NDBC:DKKF1:1,2017-07-03T23:00:00Z,25.1800,-80.4900,1.5,36.47,1111122 
ENP,ioos.station.NOAA.NDBC:DKKF1:1,2017-07-04T00:00:00Z,25.1800,-80.4900,1.5,36.48,1111122 
ENP,ioos.station.NOAA.NDBC:DKKF1:1,2017-07-04T03:00:00Z,25.1800,-80.4900,1.5,36.48,1111122 
ENP,ioos.station.NOAA.NDBC:DKKF1:1,2017-07-04T06:00:00Z,25.1800,-80.4900,1.5,36.48,1111122 
ENP,ioos.station.NOAA.NDBC:DKKF1:1,2017-07-04T07:00:00Z,25.1800,-80.4900,1.5,36.5,11111222 
ENP,ioos.station.NOAA.NDBC:DKKF1:1,2017-07-04T08:00:00Z,25.1800,-80.4900,1.5,36.5,11111222 
ENP,ioos.station.NOAA.NDBC:DKKF1:1,2017-07-04T10:00:00Z,25.1800,-80.4900,1.5,36.4,11111222 
ENP,ioos.station.NOAA.NDBC:DKKF1:1,2017-07-04T11:00:00Z,25.1800,-80.4900,1.5,36.3,11111222 
ENP,ioos.station.NOAA.NDBC:DKKF1:1,2017-07-04T12:00:00Z,25.1800,-80.4900,1.5,36.3,11111222 
ENP,ioos.station.NOAA.NDBC:DKKF1:1,2017-07-04T13:00:00Z,25.1800,-80.4900,1.5,36.3,11111222 
ENP,ioos.station.NOAA.NDBC:DKKF1:1,2017-07-04T14:00:00Z,25.1800,-80.4900,1.5,36.3,11111222 
ENP,ioos.station.NOAA.NDBC:DKKF1:1,2017-07-04T15:00:00Z,25.1800,-80.4900,1.5,36.32,1111122 
ENP,ioos.station.NOAA.NDBC:DKKF1:1,2017-07-04T16:00:00Z,25.1800,-80.4900,1.5,36.28,1111122 
ENP,ioos.station.NOAA.NDBC:DKKF1:1,2017-07-04T17:00:00Z,25.1800,-80.4900,1.5,36.34,1111122 
ENP,ioos.station.NOAA.NDBC:DKKF1:1,2017-07-04T18:00:00Z,25.1800,-80.4900,1.5,36.38,1111122 
ENP,ioos.station.NOAA.NDBC:DKKF1:1,2017-07-04T19:00:00Z,25.1800,-80.4900,1.5,36.4,1111122 
ENP,ioos.station.NOAA.NDBC:DKKF1:1,2017-07-04T20:00:00Z,25.1800,-80.4900,1.5,36.5,11111222 
ENP,ioos.station.NOAA.NDBC:DKKF1:1,2017-07-04T21:00:00Z,25.1800,-80.4900,1.5,36.5,11111222 
ENP,ioos.station.NOAA.NDBC:DKKF1:1,2017-07-04T22:00:00Z,25.1800,-80.4900,1.5,36.5,11111222 
ENP,ioos.station.NOAA.NDBC:DKKF1:1,2017-07-04T23:00:00Z,25.1800,-80.4900,1.5,36.5,11111222 
ENP,ioos.station.NOAA.NDBC:DKKF1:1,2017-07-05T00:00:00Z,25.1800,-80.4900,1.5,36.5,11111222 
ENP,ioos.station.NOAA.NDBC:DKKF1:1,2017-07-05T03:00:00Z,25.1800,-80.4900,1.5,36.5,11111222 
ENP,ioos.station.NOAA.NDBC:DKKF1:1,2017-07-05T06:00:00Z,25.1800,-80.4900,1.5,36.44,1111122 
ENP,ioos.station.NOAA.NDBC:DKKF1:1,2017-07-05T07:00:00Z,25.1800,-80.4900,1.5,36.45,1111122 
ENP,ioos.station.NOAA.NDBC:DKKF1:1,2017-07-05T08:00:00Z,25.1800,-80.4900,1.5,36.5,11111222 
ENP,ioos.station.NOAA.NDBC:DKKF1:1,2017-07-05T10:00:00Z,25.1800,-80.4900,1.5,36.49,1111122 
ENP,ioos.station.NOAA.NDBC:DKKF1:1,2017-07-05T11:00:00Z,25.1800,-80.4900,1.5,36.49,1111122 
ENP,ioos.station.NOAA.NDBC:DKKF1:1,2017-07-05T12:00:00Z,25.1800,-80.4900,1.5,36.49,1111122 
ENP,ioos.station.NOAA.NDBC:DKKF1:1,2017-07-05T13:00:00Z,25.1800,-80.4900,1.5,36.5,1111122 
ENP,ioos.station.NOAA.NDBC:DKKF1:1,2017-07-05T14:00:00Z,25.1800,-80.4900,1.5,36.5,1111122 
ENP,ioos.station.NOAA.NDBC:DKKF1:1,2017-07-05T15:00:00Z,25.1800,-80.4900,1.5,36.5,11111222 
ENP,ioos.station.NOAA.NDBC:DKKF1:1,2017-07-05T16:00:00Z,25.1800,-80.4900,1.5,36.5,11111222 
ENP,ioos.station.NOAA.NDBC:DKKF1:1,2017-07-05T17:00:00Z,25.1800,-80.4900,1.5,36.5,11111222 
ENP,ioos.station.NOAA.NDBC:DKKF1:1,2017-07-05T18:00:00Z,25.1800,-80.4900,1.5,36.6,11111222 
ENP,ioos.station.NOAA.NDBC:DKKF1:1,2017-07-05T19:00:00Z,25.1800,-80.4900,1.5,36.6,11111222 
ENP,ioos.station.NOAA.NDBC:DKKF1:1,2017-07-05T20:00:00Z,25.1800,-80.4900,1.5,36.6,11111222 
ENP,ioos.station.NOAA.NDBC:DKKF1:1,2017-07-05T21:00:00Z,25.1800,-80.4900,1.5,36.7,11111222 
ENP,ioos.station.NOAA.NDBC:DKKF1:1,2017-07-05T22:00:00Z,25.1800,-80.4900,1.5,36.66,1111122 
ENP,ioos.station.NOAA.NDBC:DKKF1:1,2017-07-05T23:00:00Z,25.1800,-80.4900,1.5,36.7,11111222 
ENP,ioos.station.NOAA.NDBC:DKKF1:1,2017-07-06T00:00:00Z,25.1800,-80.4900,1.5,36.7,11111222 
ENP,ioos.station.NOAA.NDBC:DKKF1:1,2017-07-06T03:00:00Z,25.1800,-80.4900,1.5,36.64,1111122 
ENP,ioos.station.NOAA.NDBC:DKKF1:1,2017-07-06T06:00:00Z,25.1800,-80.4900,1.5,36.69,1111122 
ENP,ioos.station.NOAA.NDBC:DKKF1:1,2017-07-06T07:00:00Z,25.1800,-80.4900,1.5,36.7,1111122 
ENP,ioos.station.NOAA.NDBC:DKKF1:1,2017-07-06T08:00:00Z,25.1800,-80.4900,1.5,36.7,1111122 
ENP,ioos.station.NOAA.NDBC:DKKF1:1,2017-07-06T10:00:00Z,25.1800,-80.4900,1.5,36.66,1111122 
ENP,ioos.station.NOAA.NDBC:DKKF1:1,2017-07-06T11:00:00Z,25.1800,-80.4900,1.5,36.7,11111222 
ENP,ioos.station.NOAA.NDBC:DKKF1:1,2017-07-06T12:00:00Z,25.1800,-80.4900,1.5,36.66,1111122 
ENP,ioos.station.NOAA.NDBC:DKKF1:1,2017-07-06T13:00:00Z,25.1800,-80.4900,1.5,36.7,11111222 
ENP,ioos.station.NOAA.NDBC:DKKF1:1,2017-07-06T14:00:00Z,25.1800,-80.4900,1.5,36.7,11111222 
ENP,ioos.station.NOAA.NDBC:DKKF1:1,2017-07-06T15:00:00Z,25.1800,-80.4900,1.5,36.7,11111222 
ENP,ioos.station.NOAA.NDBC:DKKF1:1,2017-07-06T16:00:00Z,25.1800,-80.4900,1.5,36.7,11111222 
ENP,ioos.station.NOAA.NDBC:DKKF1:1,2017-07-06T17:00:00Z,25.1800,-80.4900,1.5,36.7,11111222 
ENP,ioos.station.NOAA.NDBC:DKKF1:1,2017-07-06T18:00:00Z,25.1800,-80.4900,1.5,36.7,11111222 
ENP,ioos.station.NOAA.NDBC:DKKF1:1,2017-07-06T19:00:00Z,25.1800,-80.4900,1.5,36.7,11111222 
ENP,ioos.station.NOAA.NDBC:DKKF1:1,2017-07-06T20:00:00Z,25.1800,-80.4900,1.5,36.8,11111222 
ENP,ioos.station.NOAA.NDBC:DKKF1:1,2017-07-06T21:00:00Z,25.1800,-80.4900,1.5,36.8,11111222 
ENP,ioos.station.NOAA.NDBC:DKKF1:1,2017-07-06T22:00:00Z,25.1800,-80.4900,1.5,36.8,11111222 
ENP,ioos.station.NOAA.NDBC:DKKF1:1,2017-07-06T23:00:00Z,25.1800,-80.4900,1.5,36.8,11111222 
ENP,ioos.station.NOAA.NDBC:DKKF1:1,2017-07-07T00:00:00Z,25.1800,-80.4900,1.5,36.8,11111222 
ENP,ioos.station.NOAA.NDBC:DKKF1:1,2017-07-07T03:00:00Z,25.1800,-80.4900,1.5,36.8,11111222 
ENP,ioos.station.NOAA.NDBC:DKKF1:1,2017-07-07T06:00:00Z,25.1800,-80.4900,1.5,36.8,11111222 
ENP,ioos.station.NOAA.NDBC:DKKF1:1,2017-07-07T07:00:00Z,25.1800,-80.4900,1.5,36.8,11111222 
ENP,ioos.station.NOAA.NDBC:DKKF1:1,2017-07-07T08:00:00Z,25.1800,-80.4900,1.5,36.8,11111222 
ENP,ioos.station.NOAA.NDBC:DKKF1:1,2017-07-07T10:00:00Z,25.1800,-80.4900,1.5,36.78,1111122 
ENP,ioos.station.NOAA.NDBC:DKKF1:1,2017-07-07T11:00:00Z,25.1800,-80.4900,1.5,36.8,11111222 
ENP,ioos.station.NOAA.NDBC:DKKF1:1,2017-07-07T12:00:00Z,25.1800,-80.4900,1.5,36.8,11111222 
ENP,ioos.station.NOAA.NDBC:DKKF1:1,2017-07-07T13:00:00Z,25.1800,-80.4900,1.5,36.8,1111122 
ENP,ioos.station.NOAA.NDBC:DKKF1:1,2017-07-07T14:00:00Z,25.1800,-80.4900,1.5,36.8,11111222 
ENP,ioos.station.NOAA.NDBC:DKKF1:1,2017-07-07T15:00:00Z,25.1800,-80.4900,1.5,36.8,11111222 
ENP,ioos.station.NOAA.NDBC:DKKF1:1,2017-07-07T16:00:00Z,25.1800,-80.4900,1.5,36.8,1111122 
ENP,ioos.station.NOAA.NDBC:DKKF1:1,2017-07-07T17:00:00Z,25.1800,-80.4900,1.5,36.8,11111222 
ENP,ioos.station.NOAA.NDBC:DKKF1:1,2017-07-07T18:00:00Z,25.1800,-80.4900,1.5,36.9,11111222 
ENP,ioos.station.NOAA.NDBC:DKKF1:1,2017-07-07T19:00:00Z,25.1800,-80.4900,1.5,36.9,11111222 
ENP,ioos.station.NOAA.NDBC:DKKF1:1,2017-07-07T20:00:00Z,25.1800,-80.4900,1.5,36.89,1111122 
ENP,ioos.station.NOAA.NDBC:DKKF1:1,2017-07-07T21:00:00Z,25.1800,-80.4900,1.5,36.89,1111122 
ENP,ioos.station.NOAA.NDBC:DKKF1:1,2017-07-07T22:00:00Z,25.1800,-80.4900,1.5,36.9,11111222 
ENP,ioos.station.NOAA.NDBC:DKKF1:1,2017-07-07T23:00:00Z,25.1800,-80.4900,1.5,36.92,1111122 
ENP,ioos.station.NOAA.NDBC:DKKF1:1,2017-07-08T00:00:00Z,25.1800,-80.4900,1.5,36.92,1111122 
ENP,ioos.station.NOAA.NDBC:DKKF1:1,2017-07-08T03:00:00Z,25.1800,-80.4900,1.5,36.9,11111222 
ENP,ioos.station.NOAA.NDBC:DKKF1:1,2017-07-08T06:00:00Z,25.1800,-80.4900,1.5,36.92,1111122 
ENP,ioos.station.NOAA.NDBC:DKKF1:1,2017-07-08T07:00:00Z,25.1800,-80.4900,1.5,36.9,11111222 
ENP,ioos.station.NOAA.NDBC:DKKF1:1,2017-07-08T08:00:00Z,25.1800,-80.4900,1.5,36.9,11111222 
ENP,ioos.station.NOAA.NDBC:DKKF1:1,2017-07-08T10:00:00Z,25.1800,-80.4900,1.5,36.9,11111222 
ENP,ioos.station.NOAA.NDBC:DKKF1:1,2017-07-08T11:00:00Z,25.1800,-80.4900,1.5,36.9,11111222 
ENP,ioos.station.NOAA.NDBC:DKKF1:1,2017-07-08T12:00:00Z,25.1800,-80.4900,1.5,36.9,11111222 
ENP,ioos.station.NOAA.NDBC:DKKF1:1,2017-07-08T13:00:00Z,25.1800,-80.4900,1.5,36.9,11111222 
ENP,ioos.station.NOAA.NDBC:DKKF1:1,2017-07-08T14:00:00Z,25.1800,-80.4900,1.5,36.9,11111222 
ENP,ioos.station.NOAA.NDBC:DKKF1:1,2017-07-08T15:00:00Z,25.1800,-80.4900,1.5,36.9,11111222 
ENP,ioos.station.NOAA.NDBC:DKKF1:1,2017-07-08T16:00:00Z,25.1800,-80.4900,1.5,36.9,11111222 
ENP,ioos.station.NOAA.NDBC:DKKF1:1,2017-07-08T17:00:00Z,25.1800,-80.4900,1.5,36.9,11111222 
ENP,ioos.station.NOAA.NDBC:DKKF1:1,2017-07-08T18:00:00Z,25.1800,-80.4900,1.5,36.93,1111122 
ENP,ioos.station.NOAA.NDBC:DKKF1:1,2017-07-08T19:00:00Z,25.1800,-80.4900,1.5,36.95,1111122 
ENP,ioos.station.NOAA.NDBC:DKKF1:1,2017-07-08T20:00:00Z,25.1800,-80.4900,1.5,36.98,1111122 
ENP,ioos.station.NOAA.NDBC:DKKF1:1,2017-07-08T21:00:00Z,25.1800,-80.4900,1.5,37.0,11111222 
ENP,ioos.station.NOAA.NDBC:DKKF1:1,2017-07-08T22:00:00Z,25.1800,-80.4900,1.5,37.0,11111222 
ENP,ioos.station.NOAA.NDBC:DKKF1:1,2017-07-08T23:00:00Z,25.1800,-80.4900,1.5,37.03,1111122 
ENP,ioos.station.NOAA.NDBC:DKKF1:1,2017-07-09T00:00:00Z,25.1800,-80.4900,1.5,37.02,1111122 
ENP,ioos.station.NOAA.NDBC:DKKF1:1,2017-07-09T03:00:00Z,25.1800,-80.4900,1.5,37.02,1111122 
ENP,ioos.station.NOAA.NDBC:DKKF1:1,2017-07-09T06:00:00Z,25.1800,-80.4900,1.5,37.03,1111122 
ENP,ioos.station.NOAA.NDBC:DKKF1:1,2017-07-09T07:00:00Z,25.1800,-80.4900,1.5,37.0,11111222 
ENP,ioos.station.NOAA.NDBC:DKKF1:1,2017-07-09T08:00:00Z,25.1800,-80.4900,1.5,37.0,11111222 
ENP,ioos.station.NOAA.NDBC:DKKF1:1,2017-07-09T10:00:00Z,25.1800,-80.4900,1.5,37.01,1111122 
ENP,ioos.station.NOAA.NDBC:DKKF1:1,2017-07-09T11:00:00Z,25.1800,-80.4900,1.5,37.0,11111222 
ENP,ioos.station.NOAA.NDBC:DKKF1:1,2017-07-09T12:00:00Z,25.1800,-80.4900,1.5,36.98,1111122 
ENP,ioos.station.NOAA.NDBC:DKKF1:1,2017-07-09T13:00:00Z,25.1800,-80.4900,1.5,36.98,1111122 
ENP,ioos.station.NOAA.NDBC:DKKF1:1,2017-07-09T14:00:00Z,25.1800,-80.4900,1.5,36.98,1111122 
ENP,ioos.station.NOAA.NDBC:DKKF1:1,2017-07-09T15:00:00Z,25.1800,-80.4900,1.5,37.0,1111122 
ENP,ioos.station.NOAA.NDBC:DKKF1:1,2017-07-09T16:00:00Z,25.1800,-80.4900,1.5,37.01,1111122 
ENP,ioos.station.NOAA.NDBC:DKKF1:1,2017-07-09T17:00:00Z,25.1800,-80.4900,1.5,37.03,1111122 
ENP,ioos.station.NOAA.NDBC:DKKF1:1,2017-07-09T18:00:00Z,25.1800,-80.4900,1.5,37.05,1111122 
ENP,ioos.station.NOAA.NDBC:DKKF1:1,2017-07-09T19:00:00Z,25.1800,-80.4900,1.5,37.08,1111122 
ENP,ioos.station.NOAA.NDBC:DKKF1:1,2017-07-09T20:00:00Z,25.1800,-80.4900,1.5,37.1,1111122 
ENP,ioos.station.NOAA.NDBC:DKKF1:1,2017-07-09T21:00:00Z,25.1800,-80.4900,1.5,37.12,1111122 
ENP,ioos.station.NOAA.NDBC:DKKF1:1,2017-07-09T22:00:00Z,25.1800,-80.4900,1.5,37.13,1111122 
ENP,ioos.station.NOAA.NDBC:DKKF1:1,2017-07-09T23:00:00Z,25.1800,-80.4900,1.5,37.14,1111122 
ENP,ioos.station.NOAA.NDBC:DKKF1:1,2017-07-10T00:00:00Z,25.1800,-80.4900,1.5,37.14,1111122 
ENP,ioos.station.NOAA.NDBC:DKKF1:1,2017-07-10T03:00:00Z,25.1800,-80.4900,1.5,37.15,1111122 
ENP,ioos.station.NOAA.NDBC:DKKF1:1,2017-07-10T06:00:00Z,25.1800,-80.4900,1.5,37.15,1111122 
ENP,ioos.station.NOAA.NDBC:DKKF1:1,2017-07-10T07:00:00Z,25.1800,-80.4900,1.5,37.12,1111122 
ENP,ioos.station.NOAA.NDBC:DKKF1:1,2017-07-10T08:00:00Z,25.1800,-80.4900,1.5,37.12,1111122 
ENP,ioos.station.NOAA.NDBC:DKKF1:1,2017-07-10T10:00:00Z,25.1800,-80.4900,1.5,37.02,1111122 
ENP,ioos.station.NOAA.NDBC:DKKF1:1,2017-07-10T11:00:00Z,25.1800,-80.4900,1.5,37.0,11111222 
ENP,ioos.station.NOAA.NDBC:DKKF1:1,2017-07-10T12:00:00Z,25.1800,-80.4900,1.5,36.96,1111122 
ENP,ioos.station.NOAA.NDBC:DKKF1:1,2017-07-10T13:00:00Z,25.1800,-80.4900,1.5,37.0,1111122 
ENP,ioos.station.NOAA.NDBC:DKKF1:1,2017-07-10T14:00:00Z,25.1800,-80.4900,1.5,37.01,1111122 
ENP,ioos.station.NOAA.NDBC:DKKF1:1,2017-07-10T15:00:00Z,25.1800,-80.4900,1.5,37.01,1111122 
ENP,ioos.station.NOAA.NDBC:DKKF1:1,2017-07-10T16:00:00Z,25.1800,-80.4900,1.5,37.04,1111122 
ENP,ioos.station.NOAA.NDBC:DKKF1:1,2017-07-10T17:00:00Z,25.1800,-80.4900,1.5,37.06,1111122 
ENP,ioos.station.NOAA.NDBC:DKKF1:1,2017-07-10T18:00:00Z,25.1800,-80.4900,1.5,37.06,1111122 
ENP,ioos.station.NOAA.NDBC:DKKF1:1,2017-07-10T19:00:00Z,25.1800,-80.4900,1.5,37.07,1111122 
ENP,ioos.station.NOAA.NDBC:DKKF1:1,2017-07-10T20:00:00Z,25.1800,-80.4900,1.5,37.08,1111122 
ENP,ioos.station.NOAA.NDBC:DKKF1:1,2017-07-10T21:00:00Z,25.1800,-80.4900,1.5,37.1,11111222 
ENP,ioos.station.NOAA.NDBC:DKKF1:1,2017-07-10T22:00:00Z,25.1800,-80.4900,1.5,37.1,11111222 
ENP,ioos.station.NOAA.NDBC:DKKF1:1,2017-07-10T23:00:00Z,25.1800,-80.4900,1.5,37.11,1111122 
ENP,ioos.station.NOAA.NDBC:DKKF1:1,2017-07-11T00:00:00Z,25.1800,-80.4900,1.5,37.1,11111222 
ENP,ioos.station.NOAA.NDBC:DKKF1:1,2017-07-11T03:00:00Z,25.1800,-80.4900,1.5,37.1,11111222 
ENP,ioos.station.NOAA.NDBC:DKKF1:1,2017-07-11T06:00:00Z,25.1800,-80.4900,1.5,36.89,1111122 
ENP,ioos.station.NOAA.NDBC:DKKF1:1,2017-07-11T07:00:00Z,25.1800,-80.4900,1.5,36.83,1111122 
ENP,ioos.station.NOAA.NDBC:DKKF1:1,2017-07-11T08:00:00Z,25.1800,-80.4900,1.5,36.78,1111122 
ENP,ioos.station.NOAA.NDBC:DKKF1:1,2017-07-11T10:00:00Z,25.1800,-80.4900,1.5,36.77,1111122 
ENP,ioos.station.NOAA.NDBC:DKKF1:1,2017-07-11T11:00:00Z,25.1800,-80.4900,1.5,36.8,11111222 
ENP,ioos.station.NOAA.NDBC:DKKF1:1,2017-07-11T12:00:00Z,25.1800,-80.4900,1.5,36.7,11111222 
ENP,ioos.station.NOAA.NDBC:DKKF1:1,2017-07-11T13:00:00Z,25.1800,-80.4900,1.5,36.7,11111222 
ENP,ioos.station.NOAA.NDBC:DKKF1:1,2017-07-11T14:00:00Z,25.1800,-80.4900,1.5,36.7,11111222 
ENP,ioos.station.NOAA.NDBC:DKKF1:1,2017-07-11T15:00:00Z,25.1800,-80.4900,1.5,36.71,1111122 
ENP,ioos.station.NOAA.NDBC:DKKF1:1,2017-07-11T17:00:00Z,25.1800,-80.4900,1.5,36.73,1111122 
ENP,ioos.station.NOAA.NDBC:DKKF1:1,2017-07-11T18:00:00Z,25.1800,-80.4900,1.5,36.74,1111122 
ENP,ioos.station.NOAA.NDBC:DKKF1:1,2017-07-11T19:00:00Z,25.1800,-80.4900,1.5,36.8,11111222 
ENP,ioos.station.NOAA.NDBC:DKKF1:1,2017-07-11T20:00:00Z,25.1800,-80.4900,1.5,36.8,11111222 
ENP,ioos.station.NOAA.NDBC:DKKF1:1,2017-07-11T21:00:00Z,25.1800,-80.4900,1.5,36.8,11111222 
ENP,ioos.station.NOAA.NDBC:DKKF1:1,2017-07-11T22:00:00Z,25.1800,-80.4900,1.5,36.8,11111222 
ENP,ioos.station.NOAA.NDBC:DKKF1:1,2017-07-11T23:00:00Z,25.1800,-80.4900,1.5,36.8,11111222 
ENP,ioos.station.NOAA.NDBC:DKKF1:1,2017-07-12T00:00:00Z,25.1800,-80.4900,1.5,36.82,1111122 
ENP,ioos.station.NOAA.NDBC:DKKF1:1,2017-07-12T03:00:00Z,25.1800,-80.4900,1.5,36.8,1111122 
ENP,ioos.station.NOAA.NDBC:DKKF1:1,2017-07-12T05:00:00Z,25.1800,-80.4900,1.5,36.83,1111122 
ENP,ioos.station.NOAA.NDBC:DKKF1:1,2017-07-12T06:00:00Z,25.1800,-80.4900,1.5,36.8,11111222 
ENP,ioos.station.NOAA.NDBC:DKKF1:1,2017-07-12T07:00:00Z,25.1800,-80.4900,1.5,36.9,11111222 
ENP,ioos.station.NOAA.NDBC:DKKF1:1,2017-07-12T08:00:00Z,25.1800,-80.4900,1.5,36.9,11111222 
ENP,ioos.station.NOAA.NDBC:DKKF1:1,2017-07-12T10:00:00Z,25.1800,-80.4900,1.5,36.89,1111122 
ENP,ioos.station.NOAA.NDBC:DKKF1:1,2017-07-12T11:00:00Z,25.1800,-80.4900,1.5,36.9,11111222 
ENP,ioos.station.NOAA.NDBC:DKKF1:1,2017-07-12T12:00:00Z,25.1800,-80.4900,1.5,36.8,11111222 
ENP,ioos.station.NOAA.NDBC:DKKF1:1,2017-07-12T13:00:00Z,25.1800,-80.4900,1.5,36.84,1111122 
ENP,ioos.station.NOAA.NDBC:DKKF1:1,2017-07-12T14:00:00Z,25.1800,-80.4900,1.5,36.86,1111122 
ENP,ioos.station.NOAA.NDBC:DKKF1:1,2017-07-12T15:00:00Z,25.1800,-80.4900,1.5,36.9,11111222 
ENP,ioos.station.NOAA.NDBC:DKKF1:1,2017-07-12T16:00:00Z,25.1800,-80.4900,1.5,36.9,11111222 
ENP,ioos.station.NOAA.NDBC:DKKF1:1,2017-07-12T17:00:00Z,25.1800,-80.4900,1.5,36.9,11111222 
ENP,ioos.station.NOAA.NDBC:DKKF1:1,2017-07-12T18:00:00Z,25.1800,-80.4900,1.5,36.9,11111222 
ENP,ioos.station.NOAA.NDBC:DKKF1:1,2017-07-12T19:00:00Z,25.1800,-80.4900,1.5,36.9,11111222 
ENP,ioos.station.NOAA.NDBC:DKKF1:1,2017-07-12T20:00:00Z,25.1800,-80.4900,1.5,36.9,11111222 
ENP,ioos.station.NOAA.NDBC:DKKF1:1,2017-07-12T21:00:00Z,25.1800,-80.4900,1.5,36.9,11111222 
ENP,ioos.station.NOAA.NDBC:DKKF1:1,2017-07-12T22:00:00Z,25.1800,-80.4900,1.5,36.9,11111222 
ENP,ioos.station.NOAA.NDBC:DKKF1:1,2017-07-12T23:00:00Z,25.1800,-80.4900,1.5,36.62,1111122 
ENP,ioos.station.NOAA.NDBC:DKKF1:1,2017-07-13T00:00:00Z,25.1800,-80.4900,1.5,36.51,1111122 
ENP,ioos.station.NOAA.NDBC:DKKF1:1,2017-07-13T03:00:00Z,25.1800,-80.4900,1.5,36.0,11111222 
ENP,ioos.station.NOAA.NDBC:DKKF1:1,2017-07-13T06:00:00Z,25.1800,-80.4900,1.5,35.57,1111122 
ENP,ioos.station.NOAA.NDBC:DKKF1:1,2017-07-13T07:00:00Z,25.1800,-80.4900,1.5,35.49,1111122 
ENP,ioos.station.NOAA.NDBC:DKKF1:1,2017-07-13T08:00:00Z,25.1800,-80.4900,1.5,35.48,1111122 
ENP,ioos.station.NOAA.NDBC:DKKF1:1,2017-07-13T10:00:00Z,25.1800,-80.4900,1.5,35.51,1111122 
ENP,ioos.station.NOAA.NDBC:DKKF1:1,2017-07-13T11:00:00Z,25.1800,-80.4900,1.5,35.5,11111222 
ENP,ioos.station.NOAA.NDBC:DKKF1:1,2017-07-13T12:00:00Z,25.1800,-80.4900,1.5,35.5,11111222 
ENP,ioos.station.NOAA.NDBC:DKKF1:1,2017-07-13T13:00:00Z,25.1800,-80.4900,1.5,35.5,11111222 
ENP,ioos.station.NOAA.NDBC:DKKF1:1,2017-07-13T14:00:00Z,25.1800,-80.4900,1.5,35.5,11111222 
ENP,ioos.station.NOAA.NDBC:DKKF1:1,2017-07-13T15:00:00Z,25.1800,-80.4900,1.5,35.5,11111222 
ENP,ioos.station.NOAA.NDBC:DKKF1:1,2017-07-13T16:00:00Z,25.1800,-80.4900,1.5,35.52,1111122 
ENP,ioos.station.NOAA.NDBC:DKKF1:1,2017-07-13T17:00:00Z,25.1800,-80.4900,1.5,35.51,1111122 
ENP,ioos.station.NOAA.NDBC:DKKF1:1,2017-07-13T18:00:00Z,25.1800,-80.4900,1.5,35.5,11111222 
ENP,ioos.station.NOAA.NDBC:DKKF1:1,2017-07-13T19:00:00Z,25.1800,-80.4900,1.5,35.5,11111222 
ENP,ioos.station.NOAA.NDBC:DKKF1:1,2017-07-13T20:00:00Z,25.1800,-80.4900,1.5,35.5,11111222 
ENP,ioos.station.NOAA.NDBC:DKKF1:1,2017-07-13T21:00:00Z,25.1800,-80.4900,1.5,35.56,1111122 
ENP,ioos.station.NOAA.NDBC:DKKF1:1,2017-07-13T22:00:00Z,25.1800,-80.4900,1.5,35.6,11111222 
ENP,ioos.station.NOAA.NDBC:DKKF1:1,2017-07-13T23:00:00Z,25.1800,-80.4900,1.5,35.6,11111222 
ENP,ioos.station.NOAA.NDBC:DKKF1:1,2017-07-14T00:00:00Z,25.1800,-80.4900,1.5,35.59,1111122 
ENP,ioos.station.NOAA.NDBC:DKKF1:1,2017-07-14T03:00:00Z,25.1800,-80.4900,1.5,35.68,1111122 
ENP,ioos.station.NOAA.NDBC:DKKF1:1,2017-07-14T06:00:00Z,25.1800,-80.4900,1.5,35.68,1111122 
ENP,ioos.station.NOAA.NDBC:DKKF1:1,2017-07-14T07:00:00Z,25.1800,-80.4900,1.5,35.7,11111222 
ENP,ioos.station.NOAA.NDBC:DKKF1:1,2017-07-14T08:00:00Z,25.1800,-80.4900,1.5,35.7,11111222 
ENP,ioos.station.NOAA.NDBC:DKKF1:1,2017-07-14T10:00:00Z,25.1800,-80.4900,1.5,35.66,1111122 
ENP,ioos.station.NOAA.NDBC:DKKF1:1,2017-07-14T11:00:00Z,25.1800,-80.4900,1.5,35.7,11111222 
ENP,ioos.station.NOAA.NDBC:DKKF1:1,2017-07-14T12:00:00Z,25.1800,-80.4900,1.5,35.7,11111222 
ENP,ioos.station.NOAA.NDBC:DKKF1:1,2017-07-14T13:00:00Z,25.1800,-80.4900,1.5,35.65,1111122 
ENP,ioos.station.NOAA.NDBC:DKKF1:1,2017-07-14T14:00:00Z,25.1800,-80.4900,1.5,35.6,11111222 
ENP,ioos.station.NOAA.NDBC:DKKF1:1,2017-07-14T15:00:00Z,25.1800,-80.4900,1.5,35.56,1111122 
ENP,ioos.station.NOAA.NDBC:DKKF1:1,2017-07-14T16:00:00Z,25.1800,-80.4900,1.5,35.48,1111122 
ENP,ioos.station.NOAA.NDBC:DKKF1:1,2017-07-14T17:00:00Z,25.1800,-80.4900,1.5,35.49,1111122 